| time (UTC) | temp C | wind direction | speed KPH | gust KPH | rain 1hr cm | rain 24hr cm | rain mn cm | humidity % | barometer mb |
| 20260504224033 | 21 | 256 | 1.6 | 4.8 | 0.00 | 0.00 | 0.00 | 33 | 1009.2 |
| 20260504222133 | 21 | 243 | 4.8 | 8.0 | 0.00 | 0.00 | 0.00 | 33 | 1009.0 |
| 20260504221150 | 21 | 238 | 4.8 | 9.7 | 0.00 | 0.00 | 0.00 | 34 | 1009.1 |
| 20260504220233 | 21 | 242 | 8.0 | 16.1 | 0.00 | 0.00 | 0.00 | 34 | 1009.1 |
| 20260504215232 | 21 | 267 | 3.2 | 8.0 | 0.00 | 0.00 | 0.00 | 34 | 1009.2 |
| 20260504214233 | 21 | 210 | 1.6 | 6.4 | 0.00 | 0.00 | 0.00 | 34 | 1009.2 |
| 20260504213233 | 21 | 249 | 3.2 | 8.0 | 0.00 | 0.00 | 0.00 | 34 | 1009.2 |
| 20260504212233 | 21 | 223 | 9.7 | 22.5 | 0.00 | 0.00 | 0.00 | 35 | 1009.2 |
| 20260504210233 | 22 | 239 | 4.8 | 12.9 | 0.00 | 0.00 | 0.00 | 35 | 1009.1 |
| 20260504204333 | 22 | 222 | 6.4 | 12.9 | 0.00 | 0.00 | 0.00 | 35 | 1009.2 |
| 20260504202433 | 21 | 208 | 9.7 | 19.3 | 0.00 | 0.00 | 0.00 | 35 | 1009.1 |
| 20260504201434 | 21 | 233 | 6.4 | 16.1 | 0.00 | 0.00 | 0.00 | 36 | 1009.2 |
| 20260504195531 | 21 | 248 | 6.4 | 12.9 | 0.00 | 0.00 | 0.00 | 37 | 1009.3 |
| 20260504194535 | 21 | 231 | 4.8 | 12.9 | 0.00 | 0.00 | 0.00 | 38 | 1009.3 |
| 20260504193533 | 21 | 313 | 4.8 | 12.9 | 0.00 | 0.00 | 0.00 | 37 | 1009.0 |
| 20260504192533 | 21 | 286 | 9.7 | 16.1 | 0.00 | 0.00 | 0.00 | 39 | 1009.3 |
| 20260504191533 | 21 | 238 | 9.7 | 17.7 | 0.00 | 0.00 | 0.00 | 38 | 1009.3 |
| 20260504190534 | 21 | 237 | 11.3 | 27.4 | 0.00 | 0.00 | 0.00 | 39 | 1009.5 |
| 20260504185534 | 21 | 225 | 16.1 | 25.7 | 0.00 | 0.00 | 0.00 | 39 | 1009.2 |
| 20260504184536 | 21 | 292 | 6.4 | 17.7 | 0.00 | 0.00 | 0.00 | 40 | 1009.7 |
| 20260504183533 | 21 | 224 | 12.9 | 20.9 | 0.00 | 0.00 | 0.00 | 40 | 1009.8 |
| 20260504182533 | 20 | 233 | 11.3 | 17.7 | 0.00 | 0.00 | 0.00 | 41 | 1009.8 |
| 20260504181534 | 20 | 231 | 11.3 | 22.5 | 0.00 | 0.00 | 0.00 | 41 | 1009.9 |
| 20260504180534 | 20 | 218 | 8.0 | 19.3 | 0.00 | 0.00 | 0.00 | 42 | 1009.7 |
| 20260504175633 | 20 | 207 | 17.7 | 29.0 | 0.00 | 0.00 | 0.00 | 43 | 1010.0 |
| 20260504173633 | 20 | 259 | 3.2 | 8.0 | 0.00 | 0.00 | 0.00 | 44 | 1010.2 |
| 20260504172731 | 20 | 240 | 11.3 | 22.5 | 0.00 | 0.00 | 0.00 | 44 | 1010.3 |
| 20260504171734 | 19 | 256 | 9.7 | 14.5 | 0.00 | 0.00 | 0.00 | 45 | 1010.4 |
| 20260504170733 | 19 | 206 | 6.4 | 11.3 | 0.00 | 0.00 | 0.00 | 45 | 1010.4 |
| 20260504150834 | 17 | 239 | 8.0 | 16.1 | 0.00 | 0.00 | 0.00 | 53 | 1011.7 |
| 20260504120134 | 10 | 221 | 3.2 | 6.4 | 0.00 | 0.00 | 0.00 | 64 | 1013.5 |
| 20260504110332 | 8 | 250 | 1.6 | 4.8 | 0.00 | 0.00 | 0.00 | 65 | 1013.1 |
| 20260504100532 | 6 | 225 | 1.6 | 4.8 | 0.00 | 0.00 | 0.00 | 64 | 1013.0 |
| 20260504081833 | 5 | 225 | 0.0 | 0.0 | 0.00 | 0.00 | 0.00 | 61 | 1012.8 |
| 20260504080833 | 5 | 225 | 0.0 | 1.6 | 0.00 | 0.00 | 0.00 | 61 | 1012.8 |
| 20260504045049 | 1 | 225 | 1.6 | 1.6 | 0.00 | 0.00 | 0.00 | 53 | 1012.4 |
| 20260504044032 | 1 | 225 | 1.6 | 1.6 | 0.00 | 0.00 | 0.00 | 52 | 1012.5 |
| 20260504043049 | 1 | 225 | 1.6 | 3.2 | 0.00 | 0.00 | 0.00 | 53 | 1012.5 |
| 20260504042131 | 1 | 225 | 0.0 | 0.0 | 0.00 | 0.00 | 0.00 | 52 | 1012.3 |
| 20260504040231 | 1 | 225 | 0.0 | 1.6 | 0.00 | 0.00 | 0.00 | 52 | 1012.2 |
| 20260504035329 | 1 | 225 | 1.6 | 1.6 | 0.00 | 0.00 | 0.00 | 51 | 1012.0 |
| 20260504034329 | 1 | 225 | 0.0 | 0.0 | 0.00 | 0.00 | 0.00 | 51 | 1012.1 |
| 20260504033428 | 1 | 225 | 0.0 | 0.0 | 0.00 | 0.00 | 0.00 | 50 | 1012.0 |
| 20260504032429 | 1 | 225 | 0.0 | 0.0 | 0.00 | 0.00 | 0.00 | 50 | 1011.9 |
| 20260504031429 | 1 | 225 | 0.0 | 0.0 | 0.00 | 0.00 | 0.00 | 49 | 1011.9 |
| 20260504025430 | 2 | 225 | 0.0 | 0.0 | 0.00 | 0.00 | 0.00 | 50 | 1012.0 |
| 20260504024428 | 2 | 225 | 0.0 | 0.0 | 0.00 | 0.00 | 0.00 | 49 | 1011.8 |
| 20260504022429 | 2 | 225 | 0.0 | 1.6 | 0.00 | 0.03 | 0.00 | 49 | 1012.0 |
| 20260504021429 | 2 | 225 | 1.6 | 3.2 | 0.00 | 0.03 | 0.00 | 48 | 1011.9 |
| 20260504020429 | 3 | 247 | 0.0 | 1.6 | 0.00 | 0.03 | 0.00 | 48 | 1011.9 |
| 20260504015527 | 3 | 247 | 0.0 | 1.6 | 0.00 | 0.03 | 0.00 | 47 | 1011.8 |
| 20260504014527 | 3 | 247 | 0.0 | 0.0 | 0.00 | 0.03 | 0.00 | 48 | 1011.9 |
| 20260504013529 | 3 | 247 | 0.0 | 0.0 | 0.00 | 0.03 | 0.00 | 47 | 1011.7 |
| 20260504012527 | 3 | 247 | 0.0 | 0.0 | 0.00 | 0.03 | 0.00 | 48 | 1011.7 |
| 20260504011528 | 4 | 247 | 0.0 | 0.0 | 0.00 | 0.03 | 0.00 | 48 | 1011.7 |
| 20260504010528 | 5 | 247 | 0.0 | 0.0 | 0.00 | 0.03 | 0.00 | 47 | 1011.6 |
| 20260504005627 | 5 | 247 | 0.0 | 0.0 | 0.00 | 0.03 | 0.00 | 47 | 1011.5 |
| 20260504002727 | 6 | 247 | 0.0 | 0.0 | 0.00 | 0.03 | 0.00 | 47 | 1011.3 |
| 20260504001728 | 7 | 247 | 0.0 | 0.0 | 0.00 | 0.03 | 0.00 | 47 | 1011.2 |
| 20260504000728 | 7 | 247 | 0.0 | 0.0 | 0.00 | 0.03 | 0.00 | 48 | 1011.1 |
| 20260503235730 | 8 | 247 | 0.0 | 1.6 | 0.00 | 0.03 | 0.00 | 48 | 1011.0 |
| 20260503234828 | 8 | 292 | 0.0 | 0.0 | 0.00 | 0.03 | 0.00 | 48 | 1011.1 |
| 20260503232827 | 10 | 225 | 0.0 | 0.0 | 0.00 | 0.03 | 0.00 | 49 | 1010.9 |
| 20260503231828 | 10 | 252 | 4.8 | 9.7 | 0.00 | 0.03 | 0.00 | 49 | 1010.8 |
| 20260503230828 | 10 | 251 | 0.0 | 4.8 | 0.00 | 0.03 | 0.00 | 49 | 1010.7 |
| 20260503225927 | 10 | 203 | 1.6 | 4.8 | 0.00 | 0.03 | 0.00 | 49 | 1010.7 |
| 20260503224929 | 10 | 220 | 3.2 | 9.7 | 0.00 | 0.03 | 0.00 | 50 | 1010.5 |